Station Historical Data
Daily Summary for March 18, 2017 Units:  English    Metric   Both
Next Day »
Daily Weekly Monthly Yearly Custom
  High: Low: Average:
Temperature: 58.8 °F 49.0 °F 54.2 °F
Dew Point: 53.2 °F 42.5 °F 48.2 °F
Humidity: 89% 72% 80%
Wind Speed: 12.0mph 0.0mph 1.6mph
Wind Gust: 19.0mph - -
Wind- - SE
Pressure: 30.11 in 30.00 in -
Precipitation: 0.00 in    
Historical Graphs
 
 
Tabular Data for March 18, 2017
Time Temperature Dew Point Pressure Wind Wind Speed Wind Gust Humidity Rainfall Rate (Hourly) solar Conditions
00:03 54.9 °F 46.1 °F 30.04 in East 1.0 mph 11.0 mph 72% 0.00 in 0.00 W/m2
00:08 54.8 °F 46.0 °F 30.04 in SE 11.0 mph 11.0 mph 72% 0.00 in 0.00 W/m2
00:13 54.7 °F 45.9 °F 30.04 in Calm   12.0 mph 72% 0.00 in 0.00 W/m2
00:18 54.7 °F 45.9 °F 30.04 in ESE 4.0 mph 4.0 mph 72% 0.00 in 0.00 W/m2
00:23 54.6 °F 45.8 °F 30.04 in Calm   11.0 mph 72% 0.00 in 0.00 W/m2
00:28 54.7 °F 46.2 °F 30.04 in ESE 11.0 mph 11.0 mph 73% 0.00 in 0.00 W/m2
00:33 54.6 °F 46.1 °F 30.03 in Calm   13.0 mph 73% 0.00 in 0.00 W/m2
00:38 54.6 °F 46.1 °F 30.04 in ESE 1.0 mph 14.0 mph 73% 0.00 in 0.00 W/m2
00:43 54.5 °F 46.0 °F 30.03 in ESE 1.0 mph 5.0 mph 73% 0.00 in 0.00 W/m2
00:48 54.4 °F 45.9 °F 30.03 in ESE 1.0 mph 11.0 mph 73% 0.00 in 0.00 W/m2
00:53 54.4 °F 45.9 °F 30.03 in ESE 8.0 mph 11.0 mph 73% 0.00 in 0.00 W/m2
00:58 54.2 °F 46.1 °F 30.03 in ESE 2.0 mph 4.0 mph 74% 0.00 in 0.00 W/m2
01:03 54.2 °F 46.1 °F 30.03 in ESE 1.0 mph 5.0 mph 74% 0.00 in 0.00 W/m2
01:08 54.1 °F 46.4 °F 30.03 in East 5.0 mph 5.0 mph 75% 0.00 in 0.00 W/m2
01:13 54.0 °F 46.3 °F 30.03 in Calm   5.0 mph 75% 0.00 in 0.00 W/m2
01:18 53.9 °F 46.2 °F 30.03 in Calm   7.0 mph 75% 0.00 in 0.00 W/m2
01:23 53.9 °F 46.2 °F 30.03 in ESE 2.0 mph 5.0 mph 75% 0.00 in 0.00 W/m2
01:29 53.8 °F 46.4 °F 30.03 in SE 1.0 mph 11.0 mph 76% 0.00 in 0.00 W/m2
01:34 53.7 °F 46.3 °F 30.03 in Calm   11.0 mph 76% 0.00 in 0.00 W/m2
01:39 53.7 °F 46.3 °F 30.03 in SE 1.0 mph 4.0 mph 76% 0.00 in 0.00 W/m2
01:44 53.7 °F 46.3 °F 30.03 in SE 4.0 mph 4.0 mph 76% 0.00 in 0.00 W/m2
01:49 53.7 °F 46.3 °F 30.03 in ESE 11.0 mph 13.0 mph 76% 0.00 in 0.00 W/m2
01:54 53.7 °F 46.3 °F 30.03 in Calm   4.0 mph 76% 0.00 in 0.00 W/m2
01:59 53.7 °F 46.3 °F 30.03 in SE 8.0 mph 13.0 mph 76% 0.00 in 0.00 W/m2
02:04 53.6 °F 46.2 °F 30.03 in SE 9.0 mph 12.0 mph 76% 0.00 in 0.00 W/m2
02:09 53.5 °F 46.1 °F 30.03 in SE 12.0 mph 13.0 mph 76% 0.00 in 0.00 W/m2
02:14 53.5 °F 46.1 °F 30.03 in ESE 2.0 mph 14.0 mph 76% 0.00 in 0.00 W/m2
02:19 53.4 °F 46.4 °F 30.03 in SE 12.0 mph 13.0 mph 77% 0.00 in 0.00 W/m2
02:24 53.4 °F 46.4 °F 30.03 in SE 1.0 mph 12.0 mph 77% 0.00 in 0.00 W/m2
02:29 53.4 °F 46.4 °F 30.03 in ESE 1.0 mph 13.0 mph 77% 0.00 in 0.00 W/m2
02:34 53.4 °F 46.4 °F 30.03 in ESE 6.0 mph 13.0 mph 77% 0.00 in 0.00 W/m2
02:39 53.4 °F 46.4 °F 30.03 in SE 4.0 mph 11.0 mph 77% 0.00 in 0.00 W/m2
02:44 53.4 °F 46.7 °F 30.03 in Calm   9.0 mph 78% 0.00 in 0.00 W/m2
02:49 53.3 °F 46.6 °F 30.03 in ESE 6.0 mph 9.0 mph 78% 0.00 in 0.00 W/m2
02:54 53.3 °F 46.6 °F 30.03 in ESE 1.0 mph 8.0 mph 78% 0.00 in 0.00 W/m2
02:59 53.2 °F 46.5 °F 30.02 in ESE 7.0 mph 12.0 mph 78% 0.00 in 0.00 W/m2
03:04 53.1 °F 46.4 °F 30.02 in Calm   9.0 mph 78% 0.00 in 0.00 W/m2
03:09 53.0 °F 46.7 °F 30.02 in SE 8.0 mph 11.0 mph 79% 0.00 in 0.00 W/m2
03:14 53.0 °F 46.7 °F 30.02 in ESE 5.0 mph 13.0 mph 79% 0.00 in 0.00 W/m2
03:19 52.9 °F 46.6 °F 30.01 in ESE 7.0 mph 13.0 mph 79% 0.00 in 0.00 W/m2
03:24 52.9 °F 46.6 °F 30.01 in Calm   14.0 mph 79% 0.00 in 0.00 W/m2
03:29 52.9 °F 46.6 °F 30.01 in SE 1.0 mph 11.0 mph 79% 0.00 in 0.00 W/m2
03:34 52.9 °F 46.6 °F 30.01 in Calm   12.0 mph 79% 0.00 in 0.00 W/m2
03:39 52.9 °F 46.6 °F 30.00 in ESE 11.0 mph 15.0 mph 79% 0.00 in 0.00 W/m2
03:44 52.9 °F 46.6 °F 30.00 in SE 10.0 mph 14.0 mph 79% 0.00 in 0.00 W/m2
03:49 52.9 °F 46.6 °F 30.00 in ESE 5.0 mph 14.0 mph 79% 0.00 in 0.00 W/m2
03:54 52.8 °F 46.5 °F 30.00 in ESE 6.0 mph 14.0 mph 79% 0.00 in 0.00 W/m2
03:59 52.8 °F 46.5 °F 30.00 in SE 9.0 mph 12.0 mph 79% 0.00 in 0.00 W/m2
04:04 52.8 °F 46.5 °F 30.00 in Calm   9.0 mph 79% 0.00 in 0.00 W/m2
04:09 52.8 °F 46.8 °F 30.00 in Calm   9.0 mph 80% 0.00 in 0.00 W/m2
04:14 52.7 °F 46.4 °F 30.00 in ESE 1.0 mph 11.0 mph 79% 0.00 in 0.00 W/m2
04:19 52.6 °F 46.6 °F 30.01 in Calm   1.0 mph 80% 0.00 in 0.00 W/m2
04:24 52.5 °F 46.5 °F 30.01 in Calm     80% 0.00 in 0.00 W/m2
04:29 52.4 °F 46.4 °F 30.00 in Calm     80% 0.00 in 0.00 W/m2
04:34 52.3 °F 46.3 °F 30.00 in Calm     80% 0.00 in 0.00 W/m2
04:39 52.2 °F 46.2 °F 30.01 in Calm     80% 0.00 in 0.00 W/m2
04:44 52.1 °F 46.1 °F 30.01 in Calm     80% 0.00 in 0.00 W/m2
04:49 51.9 °F 45.9 °F 30.01 in Calm     80% 0.00 in 0.00 W/m2
04:54 51.9 °F 46.3 °F 30.01 in Calm     81% 0.00 in 0.00 W/m2
05:00 51.8 °F 46.2 °F 30.01 in Calm     81% 0.00 in 0.00 W/m2
05:05 51.7 °F 46.1 °F 30.01 in Calm     81% 0.00 in 0.00 W/m2
05:10 51.7 °F 46.1 °F 30.01 in Calm     81% 0.00 in 0.00 W/m2
05:15 51.7 °F 46.1 °F 30.01 in Calm     81% 0.00 in 0.00 W/m2
05:20 51.7 °F 46.1 °F 30.02 in Calm     81% 0.00 in 0.00 W/m2
05:25 51.7 °F 46.1 °F 30.02 in Calm     81% 0.00 in 0.00 W/m2
05:30 51.7 °F 46.1 °F 30.02 in Calm     81% 0.00 in 0.00 W/m2
05:35 51.7 °F 46.1 °F 30.02 in Calm     81% 0.00 in 0.00 W/m2
05:40 51.6 °F 46.0 °F 30.02 in Calm     81% 0.00 in 0.00 W/m2
05:45 51.7 °F 46.1 °F 30.02 in Calm     81% 0.00 in 0.00 W/m2
05:50 51.7 °F 46.1 °F 30.02 in Calm     81% 0.00 in 0.00 W/m2
05:55 51.7 °F 46.1 °F 30.02 in Calm     81% 0.00 in 0.00 W/m2
06:00 51.7 °F 46.1 °F 30.02 in Calm   5.0 mph 81% 0.00 in 0.00 W/m2
06:05 51.6 °F 46.0 °F 30.02 in Calm   4.0 mph 81% 0.00 in 0.00 W/m2
06:10 51.6 °F 46.0 °F 30.03 in SE 1.0 mph 4.0 mph 81% 0.00 in 0.00 W/m2
06:15 51.6 °F 46.0 °F 30.03 in ESE 4.0 mph 5.0 mph 81% 0.00 in 0.00 W/m2
06:20 51.5 °F 45.9 °F 30.02 in Calm   5.0 mph 81% 0.00 in 0.00 W/m2
06:25 51.5 °F 45.9 °F 30.03 in Calm   6.0 mph 81% 0.00 in 0.00 W/m2
06:30 51.5 °F 45.9 °F 30.03 in ESE 1.0 mph 9.0 mph 81% 0.00 in 0.00 W/m2
06:35 51.4 °F 45.8 °F 30.03 in ESE 2.0 mph 5.0 mph 81% 0.00 in 0.00 W/m2
06:40 51.4 °F 45.8 °F 30.03 in ESE 1.0 mph 5.0 mph 81% 0.00 in 0.00 W/m2
06:45 51.4 °F 45.8 °F 30.03 in Calm   7.0 mph 81% 0.00 in 0.00 W/m2
06:50 51.4 °F 45.8 °F 30.03 in Calm   4.0 mph 81% 0.00 in 0.00 W/m2
06:55 51.3 °F 45.7 °F 30.03 in ESE 2.0 mph 6.0 mph 81% 0.00 in 0.00 W/m2
07:00 51.3 °F 45.3 °F 30.03 in Calm   5.0 mph 80% 0.00 in 0.00 W/m2
07:05 51.3 °F 45.3 °F 30.04 in ESE 6.0 mph 6.0 mph 80% 0.00 in 0.00 W/m2
07:10 51.3 °F 45.7 °F 30.04 in Calm   7.0 mph 81% 0.00 in 0.00 W/m2
07:15 51.3 °F 45.3 °F 30.04 in ESE 2.0 mph 8.0 mph 80% 0.00 in 0.00 W/m2
07:20 51.4 °F 45.5 °F 30.04 in Calm   4.0 mph 80% 0.00 in 5.00 W/m2
07:25 51.4 °F 45.5 °F 30.04 in ESE 6.0 mph 7.0 mph 80% 0.00 in 9.00 W/m2
07:30 51.5 °F 45.5 °F 30.04 in ESE 2.0 mph 7.0 mph 80% 0.00 in 14.00 W/m2
07:35 51.6 °F 45.3 °F 30.05 in Calm   7.0 mph 79% 0.00 in 19.00 W/m2
07:40 51.6 °F 45.3 °F 30.05 in ESE 1.0 mph 8.0 mph 79% 0.00 in 25.00 W/m2
07:45 51.7 °F 45.4 °F 30.05 in Calm   6.0 mph 79% 0.00 in 32.00 W/m2
07:50 51.8 °F 45.5 °F 30.05 in Calm   5.0 mph 79% 0.00 in 39.00 W/m2
07:55 51.9 °F 45.6 °F 30.05 in SE 2.0 mph 11.0 mph 79% 0.00 in 58.00 W/m2
08:00 52.0 °F 45.7 °F 30.05 in SE 4.0 mph 7.0 mph 79% 0.00 in 76.00 W/m2
08:05 52.1 °F 46.1 °F 30.05 in SE 1.0 mph 8.0 mph 80% 0.00 in 84.00 W/m2
08:10 52.3 °F 46.3 °F 30.05 in SE 2.0 mph 7.0 mph 80% 0.00 in 90.00 W/m2
08:15 52.4 °F 46.1 °F 30.05 in SE 11.0 mph 12.0 mph 79% 0.00 in 104.00 W/m2
08:20 52.6 °F 46.3 °F 30.05 in SE 6.0 mph 7.0 mph 79% 0.00 in 118.00 W/m2
08:25 52.8 °F 46.5 °F 30.05 in SE 6.0 mph 9.0 mph 79% 0.00 in 148.00 W/m2
08:30 53.0 °F 46.7 °F 30.05 in ESE 1.0 mph 12.0 mph 79% 0.00 in 146.00 W/m2
08:35 53.2 °F 46.9 °F 30.05 in Calm   7.0 mph 79% 0.00 in 160.00 W/m2
08:40 53.4 °F 46.7 °F 30.05 in Calm   13.0 mph 78% 0.00 in 192.00 W/m2
08:45 53.6 °F 46.9 °F 30.05 in SE 1.0 mph 14.0 mph 78% 0.00 in 250.00 W/m2
08:50 53.8 °F 47.1 °F 30.06 in Calm   13.0 mph 78% 0.00 in 260.00 W/m2
08:55 54.0 °F 47.3 °F 30.06 in Calm   15.0 mph 78% 0.00 in 211.00 W/m2
09:01 54.3 °F 47.6 °F 30.06 in Calm   11.0 mph 78% 0.00 in 188.00 W/m2
09:06 54.6 °F 47.5 °F 30.06 in Calm   11.0 mph 77% 0.00 in 199.00 W/m2
09:11 54.9 °F 47.8 °F 30.06 in SE 1.0 mph 8.0 mph 77% 0.00 in 179.00 W/m2
09:16 55.1 °F 48.4 °F 30.06 in SE 9.0 mph 10.0 mph 78% 0.00 in 192.00 W/m2
09:21 55.3 °F 48.6 °F 30.06 in Calm   9.0 mph 78% 0.00 in 202.00 W/m2
09:26 55.5 °F 48.8 °F 30.06 in Calm   11.0 mph 78% 0.00 in 183.00 W/m2
09:36 55.9 °F 49.2 °F 30.06 in Calm   4.0 mph 78% 0.00 in 151.00 W/m2
09:41 56.1 °F 49.3 °F 30.07 in Calm   2.0 mph 78% 0.00 in 130.00 W/m2
09:46 56.3 °F 49.9 °F 30.07 in SSE 1.0 mph 6.0 mph 79% 0.00 in 121.00 W/m2
09:51 56.4 °F 50.0 °F 30.07 in South 2.0 mph 12.0 mph 79% 0.00 in 123.00 W/m2
09:56 56.6 °F 49.8 °F 30.07 in Calm     78% 0.00 in 144.00 W/m2
10:06 56.8 °F 50.0 °F 30.08 in Calm     78% 0.00 in 178.00 W/m2
10:11 57.0 °F 50.2 °F 30.08 in South 5.0 mph 6.0 mph 78% 0.00 in 178.00 W/m2
10:16 57.2 °F 50.4 °F 30.08 in Calm     78% 0.00 in 200.00 W/m2
10:21 57.3 °F 50.5 °F 30.08 in Calm   3.0 mph 78% 0.00 in 192.00 W/m2
10:26 57.4 °F 50.6 °F 30.08 in Calm     78% 0.00 in 169.00 W/m2
10:31 57.5 °F 50.7 °F 30.09 in Calm   4.0 mph 78% 0.00 in 146.00 W/m2
10:36 57.6 °F 50.8 °F 30.09 in South 7.0 mph 9.0 mph 78% 0.00 in 142.00 W/m2
10:41 57.6 °F 50.8 °F 30.09 in SSE 11.0 mph 11.0 mph 78% 0.00 in 179.00 W/m2
10:46 57.6 °F 50.8 °F 30.09 in Calm   7.0 mph 78% 0.00 in 146.00 W/m2
10:51 57.6 °F 50.8 °F 30.10 in SSW 1.0 mph 7.0 mph 78% 0.00 in 155.00 W/m2
10:56 57.6 °F 50.8 °F 30.10 in South 7.0 mph 8.0 mph 78% 0.00 in 186.00 W/m2
11:01 57.6 °F 51.1 °F 30.10 in South 5.0 mph 7.0 mph 79% 0.00 in 163.00 W/m2
11:06 57.6 °F 51.1 °F 30.10 in Calm   1.0 mph 79% 0.00 in 125.00 W/m2
11:11 57.5 °F 51.0 °F 30.10 in Calm   6.0 mph 79% 0.00 in 141.00 W/m2
11:16 57.5 °F 51.0 °F 30.10 in Calm     79% 0.00 in 172.00 W/m2
11:21 57.6 °F 51.5 °F 30.11 in Calm   1.0 mph 80% 0.00 in 135.00 W/m2
11:26 57.5 °F 51.4 °F 30.11 in Calm     80% 0.00 in 149.00 W/m2
11:31 57.5 °F 51.4 °F 30.10 in Calm     80% 0.00 in 172.00 W/m2
11:38 57.4 °F 51.6 °F 30.10 in Calm     81% 0.00 in 144.00 W/m2
11:43 57.4 °F 51.6 °F 30.11 in Calm     81% 0.00 in 81.00 W/m2
11:48 57.3 °F 51.5 °F 30.10 in Calm     81% 0.00 in 158.00 W/m2
11:53 57.3 °F 51.9 °F 30.10 in Calm     82% 0.00 in 120.00 W/m2
11:58 57.3 °F 52.2 °F 30.11 in Calm     83% 0.00 in 132.00 W/m2
12:03 57.2 °F 52.4 °F 30.11 in Calm     84% 0.00 in 176.00 W/m2
12:08 57.1 °F 52.3 °F 30.11 in Calm     84% 0.00 in 209.00 W/m2
12:13 57.0 °F 52.5 °F 30.11 in Calm     85% 0.00 in 178.00 W/m2
12:18 56.9 °F 52.4 °F 30.10 in Calm     85% 0.00 in 181.00 W/m2
12:23 56.9 °F 52.1 °F 30.10 in Calm     84% 0.00 in 183.00 W/m2
12:28 56.9 °F 52.8 °F 30.09 in Calm   6.0 mph 86% 0.00 in 167.00 W/m2
12:33 56.9 °F 52.4 °F 30.09 in Calm   8.0 mph 85% 0.00 in 162.00 W/m2
12:39 56.9 °F 52.4 °F 30.09 in Calm   5.0 mph 85% 0.00 in 127.00 W/m2
12:44 56.9 °F 52.1 °F 30.08 in ESE 1.0 mph 15.0 mph 84% 0.00 in 190.00 W/m2
12:49 56.9 °F 52.4 °F 30.08 in Calm   6.0 mph 85% 0.00 in 234.00 W/m2
12:54 57.0 °F 52.5 °F 30.10 in Calm     85% 0.00 in 230.00 W/m2
12:59 57.1 °F 52.6 °F 30.10 in Calm     85% 0.00 in 202.00 W/m2
13:04 57.0 °F 51.9 °F 30.10 in SE 2.0 mph 6.0 mph 83% 0.00 in 243.00 W/m2
13:09 57.1 °F 52.0 °F 30.09 in Calm     83% 0.00 in 248.00 W/m2
13:14 57.2 °F 52.1 °F 30.09 in Calm     83% 0.00 in 200.00 W/m2
13:19 57.3 °F 51.9 °F 30.09 in Calm     82% 0.00 in 246.00 W/m2
13:24 57.5 °F 52.1 °F 30.09 in SE 1.0 mph 9.0 mph 82% 0.00 in 292.00 W/m2
13:29 57.6 °F 52.2 °F 30.08 in SE 2.0 mph 8.0 mph 82% 0.00 in 285.00 W/m2
13:34 57.8 °F 52.3 °F 30.08 in SE 4.0 mph 11.0 mph 82% 0.00 in 244.00 W/m2
13:39 58.0 °F 52.2 °F 30.08 in SE 2.0 mph 5.0 mph 81% 0.00 in 221.00 W/m2
13:44 58.2 °F 52.4 °F 30.08 in Calm   8.0 mph 81% 0.00 in 221.00 W/m2
13:49 58.3 °F 52.5 °F 30.08 in Calm   8.0 mph 81% 0.00 in 251.00 W/m2
13:54 58.5 °F 52.7 °F 30.08 in SE 1.0 mph 8.0 mph 81% 0.00 in 160.00 W/m2
13:59 58.6 °F 52.5 °F 30.09 in Calm   5.0 mph 80% 0.00 in 142.00 W/m2
14:04 58.6 °F 52.1 °F 30.09 in Calm   9.0 mph 79% 0.00 in 135.00 W/m2
14:09 58.7 °F 52.6 °F 30.09 in Calm     80% 0.00 in 162.00 W/m2
14:14 58.7 °F 52.6 °F 30.09 in Calm   4.0 mph 80% 0.00 in 172.00 W/m2
14:19 58.8 °F 52.7 °F 30.09 in Calm   4.0 mph 80% 0.00 in 149.00 W/m2
14:24 58.8 °F 52.7 °F 30.09 in Calm   6.0 mph 80% 0.00 in 137.00 W/m2
14:29 58.8 °F 53.0 °F 30.09 in SSW 4.0 mph 4.0 mph 81% 0.00 in 160.00 W/m2
14:34 58.7 °F 53.2 °F 30.09 in Calm   4.0 mph 82% 0.00 in 163.00 W/m2
14:39 58.5 °F 52.7 °F 30.09 in Calm     81% 0.00 in 144.00 W/m2
14:44 58.3 °F 52.8 °F 30.09 in Calm     82% 0.00 in 142.00 W/m2
14:54 57.9 °F 52.1 °F 30.10 in Calm   5.0 mph 81% 0.00 in 98.00 W/m2
14:59 57.7 °F 51.6 °F 30.10 in Calm   5.0 mph 80% 0.00 in 77.00 W/m2
15:04 57.4 °F 51.3 °F 30.10 in Calm     80% 0.00 in 91.00 W/m2
15:09 56.9 °F 51.5 °F 30.11 in Calm     82% 0.04 in 86.00 W/m2
15:14 56.7 °F 51.9 °F 30.10 in Calm     84% 0.04 in 84.00 W/m2
15:20 56.4 °F 52.0 °F 30.10 in Calm   2.0 mph 85% 0.04 in 97.00 W/m2
15:25 56.1 °F 51.7 °F 30.10 in Calm     85% 0.00 in 139.00 W/m2
15:30 55.7 °F 51.3 °F 30.10 in Calm   4.0 mph 85% 0.00 in 84.00 W/m2
15:35 55.3 °F 50.6 °F 30.09 in Calm     84% 0.00 in 98.00 W/m2
15:40 55.0 °F 50.6 °F 30.08 in Calm     85% 0.00 in 102.00 W/m2
15:45 54.8 °F 50.7 °F 30.09 in South 6.0 mph 6.0 mph 86% 0.00 in 107.00 W/m2
15:50 54.7 °F 50.9 °F 30.08 in Calm   11.0 mph 87% 0.00 in 114.00 W/m2
15:55 54.6 °F 50.8 °F 30.07 in ESE 2.0 mph 8.0 mph 87% 0.00 in 186.00 W/m2
16:00 54.5 °F 51.0 °F 30.07 in ESE 6.0 mph 12.0 mph 88% 0.00 in 144.00 W/m2
16:05 54.5 °F 51.0 °F 30.07 in ESE 2.0 mph 18.0 mph 88% 0.00 in 204.00 W/m2
16:10 54.6 °F 51.4 °F 30.06 in ESE 5.0 mph 14.0 mph 89% 0.00 in 241.00 W/m2
16:15 54.8 °F 51.6 °F 30.06 in ESE 4.0 mph 14.0 mph 89% 0.00 in 225.00 W/m2
16:20 55.0 °F 51.8 °F 30.06 in East 4.0 mph 19.0 mph 89% 0.00 in 202.00 W/m2
16:25 55.3 °F 52.1 °F 30.06 in SE 1.0 mph 17.0 mph 89% 0.00 in 213.00 W/m2
16:30 55.6 °F 52.4 °F 30.06 in East 1.0 mph 12.0 mph 89% 0.00 in 206.00 W/m2
16:35 55.8 °F 52.6 °F 30.06 in Calm   15.0 mph 89% 0.00 in 225.00 W/m2
16:40 56.0 °F 52.5 °F 30.06 in Calm   16.0 mph 88% 0.00 in 220.00 W/m2
16:45 56.1 °F 52.3 °F 30.06 in Calm   15.0 mph 87% 0.00 in 260.00 W/m2
16:50 56.2 °F 52.1 °F 30.06 in Calm   16.0 mph 86% 0.00 in 462.00 W/m2
16:55 56.4 °F 52.0 °F 30.05 in ESE 4.0 mph 10.0 mph 85% 0.00 in 248.00 W/m2
17:00 56.6 °F 51.5 °F 30.05 in Calm   3.0 mph 83% 0.00 in 192.00 W/m2
17:05 56.8 °F 51.7 °F 30.04 in ESE 5.0 mph 9.0 mph 83% 0.00 in 478.00 W/m2
17:10 57.0 °F 51.2 °F 30.04 in ESE 4.0 mph 9.0 mph 81% 0.00 in 381.00 W/m2
17:15 57.3 °F 50.8 °F 30.04 in ESE 2.0 mph 11.0 mph 79% 0.00 in 353.00 W/m2
17:20 57.5 °F 51.0 °F 30.04 in ESE 6.0 mph 11.0 mph 79% 0.00 in 332.00 W/m2
17:25 57.8 °F 51.0 °F 30.04 in Calm   6.0 mph 78% 0.00 in 315.00 W/m2
17:30 58.0 °F 50.8 °F 30.04 in Calm   6.0 mph 77% 0.00 in 294.00 W/m2
17:35 58.2 °F 51.4 °F 30.04 in ESE 5.0 mph 9.0 mph 78% 0.00 in 241.00 W/m2
17:40 58.3 °F 51.5 °F 30.04 in Calm   4.0 mph 78% 0.00 in 221.00 W/m2
17:45 58.4 °F 51.6 °F 30.04 in Calm     78% 0.00 in 213.00 W/m2
17:50 58.4 °F 51.6 °F 30.04 in Calm     78% 0.00 in 192.00 W/m2
17:55 58.4 °F 51.6 °F 30.04 in SW 3.0 mph 5.0 mph 78% 0.00 in 211.00 W/m2
18:00 58.4 °F 51.9 °F 30.05 in West 3.0 mph 7.0 mph 79% 0.00 in 179.00 W/m2
18:05 58.4 °F 52.3 °F 30.04 in West 1.0 mph 8.0 mph 80% 0.00 in 174.00 W/m2
18:10 58.4 °F 51.9 °F 30.04 in WSW 1.0 mph 5.0 mph 79% 0.00 in 149.00 W/m2
18:15 58.4 °F 51.9 °F 30.04 in Calm   4.0 mph 79% 0.00 in 100.00 W/m2
18:20 58.4 °F 52.3 °F 30.04 in WSW 3.0 mph 3.0 mph 80% 0.00 in 65.00 W/m2
18:25 58.2 °F 51.4 °F 30.05 in Calm   1.0 mph 78% 0.00 in 33.00 W/m2
18:30 58.1 °F 51.6 °F 30.05 in WSW 2.0 mph 4.0 mph 79% 0.00 in 26.00 W/m2
18:36 57.8 °F 51.7 °F 30.06 in Calm   5.0 mph 80% 0.00 in 30.00 W/m2
18:41 57.6 °F 51.1 °F 30.06 in Calm   3.0 mph 79% 0.00 in 28.00 W/m2
18:46 57.4 °F 50.6 °F 30.06 in Calm   4.0 mph 78% 0.00 in 28.00 W/m2
18:51 57.2 °F 49.7 °F 30.07 in WSW 2.0 mph 5.0 mph 76% 0.00 in 25.00 W/m2
18:56 56.9 °F 48.7 °F 30.08 in Calm   4.0 mph 74% 0.00 in 21.00 W/m2
19:01 56.6 °F 48.4 °F 30.08 in Calm   4.0 mph 74% 0.00 in 14.00 W/m2
19:06 56.3 °F 47.4 °F 30.08 in Calm   2.0 mph 72% 0.00 in 9.00 W/m2
19:11 56.0 °F 47.1 °F 30.08 in Calm     72% 0.00 in 5.00 W/m2
19:16 55.7 °F 47.5 °F 30.08 in Calm   1.0 mph 74% 0.00 in 0.00 W/m2
19:21 55.4 °F 47.6 °F 30.09 in Calm     75% 0.00 in 0.00 W/m2
19:26 55.1 °F 47.0 °F 30.09 in Calm     74% 0.00 in 0.00 W/m2
19:31 54.7 °F 46.9 °F 30.09 in Calm     75% 0.00 in 0.00 W/m2
19:36 54.1 °F 47.1 °F 30.10 in Calm     77% 0.00 in 0.00 W/m2
19:41 53.5 °F 46.5 °F 30.10 in Calm     77% 0.00 in 0.00 W/m2
19:46 53.0 °F 46.3 °F 30.10 in Calm     78% 0.00 in 0.00 W/m2
19:51 52.6 °F 45.3 °F 30.11 in Calm     76% 0.00 in 0.00 W/m2
19:56 52.3 °F 45.0 °F 30.11 in Calm     76% 0.00 in 0.00 W/m2
20:01 51.8 °F 45.2 °F 30.11 in Calm     78% 0.00 in 0.00 W/m2
20:06 51.3 °F 44.3 °F 30.11 in Calm     77% 0.00 in 0.00 W/m2
20:11 50.9 °F 44.3 °F 30.11 in Calm     78% 0.00 in 0.00 W/m2
20:16 50.7 °F 44.4 °F 30.11 in Calm     79% 0.00 in 0.00 W/m2
20:21 50.6 °F 44.3 °F 30.11 in Calm     79% 0.00 in 0.00 W/m2
20:26 50.6 °F 44.7 °F 30.11 in Calm     80% 0.00 in 0.00 W/m2
20:31 50.5 °F 43.9 °F 30.11 in Calm     78% 0.00 in 0.00 W/m2
20:36 50.4 °F 44.5 °F 30.11 in Calm     80% 0.00 in 0.00 W/m2
20:41 50.2 °F 44.3 °F 30.11 in Calm     80% 0.00 in 0.00 W/m2
20:46 49.9 °F 43.3 °F 30.11 in Calm     78% 0.00 in 0.00 W/m2
20:51 49.6 °F 43.4 °F 30.11 in Calm     79% 0.00 in 0.00 W/m2
20:56 49.4 °F 43.2 °F 30.11 in Calm     79% 0.00 in 0.00 W/m2
21:01 49.3 °F 43.1 °F 30.11 in Calm     79% 0.00 in 0.00 W/m2
21:06 49.2 °F 42.6 °F 30.11 in Calm     78% 0.00 in 0.00 W/m2
21:11 49.1 °F 42.5 °F 30.11 in Calm     78% 0.00 in 0.00 W/m2
21:16 49.1 °F 42.9 °F 30.10 in Calm     79% 0.00 in 0.00 W/m2
21:21 49.0 °F 42.8 °F 30.10 in Calm   2.0 mph 79% 0.00 in 0.00 W/m2
21:26 49.0 °F 42.8 °F 30.10 in Calm     79% 0.00 in 0.00 W/m2
21:31 49.1 °F 43.2 °F 30.11 in ESE 1.0 mph 1.0 mph 80% 0.00 in 0.00 W/m2
21:36 49.1 °F 43.5 °F 30.10 in Calm   2.0 mph 81% 0.00 in 0.00 W/m2
21:41 49.1 °F 43.5 °F 30.10 in Calm   6.0 mph 81% 0.00 in 0.00 W/m2
21:46 49.2 °F 44.0 °F 30.10 in East 2.0 mph 6.0 mph 82% 0.00 in 0.00 W/m2
21:51 49.3 °F 44.0 °F 30.10 in East 5.0 mph 5.0 mph 82% 0.00 in 0.00 W/m2
21:56 49.4 °F 44.5 °F 30.11 in East 1.0 mph 5.0 mph 83% 0.00 in 0.00 W/m2
22:01 49.5 °F 44.6 °F 30.11 in ESE 4.0 mph 7.0 mph 83% 0.00 in 0.00 W/m2
22:06 49.7 °F 44.8 °F 30.11 in East 6.0 mph 8.0 mph 83% 0.00 in 0.00 W/m2
22:11 49.9 °F 45.3 °F 30.11 in Calm   2.0 mph 84% 0.00 in 0.00 W/m2
22:16 50.1 °F 45.5 °F 30.10 in Calm   5.0 mph 84% 0.00 in 0.00 W/m2
22:21 50.3 °F 45.7 °F 30.10 in ENE 3.0 mph 5.0 mph 84% 0.00 in 0.00 W/m2
22:26 50.5 °F 45.8 °F 30.10 in Calm   11.0 mph 84% 0.00 in 0.00 W/m2
22:32 50.7 °F 46.0 °F 30.10 in Calm   7.0 mph 84% 0.00 in 0.00 W/m2
22:37 50.8 °F 46.5 °F 30.10 in East 1.0 mph 7.0 mph 85% 0.00 in 0.00 W/m2
22:42 51.0 °F 46.7 °F 30.10 in ESE 2.0 mph 4.0 mph 85% 0.00 in 0.00 W/m2
22:47 51.2 °F 46.8 °F 30.10 in East 5.0 mph 5.0 mph 85% 0.00 in 0.00 W/m2
22:52 51.3 °F 47.0 °F 30.10 in East 4.0 mph 4.0 mph 85% 0.00 in 0.00 W/m2
22:57 51.4 °F 47.0 °F 30.10 in East 4.0 mph 4.0 mph 85% 0.00 in 0.00 W/m2
23:02 51.5 °F 47.2 °F 30.10 in ESE 1.0 mph 6.0 mph 85% 0.00 in 0.00 W/m2
23:07 51.5 °F 47.2 °F 30.10 in East 1.0 mph 4.0 mph 85% 0.00 in 0.00 W/m2
23:12 51.5 °F 47.2 °F 30.10 in ESE 1.0 mph 6.0 mph 85% 0.00 in 0.00 W/m2
23:17 51.5 °F 47.2 °F 30.10 in East 4.0 mph 5.0 mph 85% 0.00 in 0.00 W/m2
23:22 51.5 °F 47.2 °F 30.10 in Calm   2.0 mph 85% 0.00 in 0.00 W/m2
23:27 51.5 °F 47.2 °F 30.10 in ESE 1.0 mph 6.0 mph 85% 0.00 in 0.00 W/m2
23:32 51.4 °F 47.0 °F 30.10 in Calm   7.0 mph 85% 0.00 in 0.00 W/m2
23:37 51.4 °F 47.4 °F 30.09 in ESE 1.0 mph 11.0 mph 86% 0.00 in 0.00 W/m2
23:42 51.4 °F 47.4 °F 30.09 in East 5.0 mph 6.0 mph 86% 0.00 in 0.00 W/m2
23:47 51.4 °F 47.4 °F 30.09 in Calm   2.0 mph 86% 0.00 in 0.00 W/m2
23:52 51.4 °F 47.4 °F 30.08 in Calm   5.0 mph 86% 0.00 in 0.00 W/m2
23:57 51.4 °F 47.4 °F 30.08 in ESE 4.0 mph 4.0 mph 86% 0.00 in 0.00 W/m2
Foresthill Weather
 WU-history PHP script courtesy of   Juneau County Weather.
powered by Cumulus v1.9.3 (1059)
Ambient Weather VWS v14.00
Top Contact Website Map Copyright © 2007 - 2018 Foresthillweather.com Never base important decisions on this or any weather information obtained from the Internet